Terug naar catalogus

COSMOS 2251 DEB

ActiefLEO
NORAD 35837·DEBRIS·🇷🇺 Russia

Gelanceerd Jun 16, 1993 vanaf Plesetsk Cosmodrome

Loading…

Volgende Passages (komende 24 uur)

TLE

VersSource: Space-Track

Epoch: Sep 13, 2026, 14:06 UTC

1 35837U 93036ATK 26256.58789793  .00002282  00000-0  15740-2 0  9997
2 35837  73.7243 109.5080 0411910 351.6975  35.7277 13.65679272617260

Volg COSMOS 2251 DEB in realtime met AllMySat

Download on the App Store